Date String (YYYY-MM-DD hh:mm:ss) UTC,Instrument flags,Ambient pressure (hPa),Sample flow (lpm),Bypass flow (lpm),Sample temperature (°C),Ambient temperature (°C),ASC tube jacket temperature (°C),LED temperature (°C),Box temperature (°C),Sample RH (%),Span deviation,Mass concentration (μg/m³),Mass concentration (μg/m³),Mass concentration (μg/m³)
DateTimeUTC,F1_M11,P_M11,Q1_M11,Q2_M11,T1_M11,T2_M11,T3_M11,T4_M11,T5_M11,U1_M11,ZSPAN_M11,X0_M11,X2_M11,X1_M11
2022-03-13 11:00:00,,0821.8,5.02,0.00,22.6,21.9,00.0,31.5,24.4,10.5,0000.0,0004.64,0002.79,0002.04
2022-03-13 11:01:00,,0821.9,4.99,0.00,22.6,21.9,00.0,31.5,24.4,10.4,0000.0,0004.74,0002.81,0002.04
2022-03-13 11:02:00,,0821.9,5.01,0.00,22.6,21.9,00.0,31.5,24.4,10.6,0000.0,0004.91,0002.85,0002.03
2022-03-13 11:03:00,,0821.8,5.00,0.00,22.6,21.9,00.0,31.5,24.4,10.6,0000.0,0004.96,0002.87,0002.03
2022-03-13 11:04:00,,0821.8,4.99,0.00,22.6,21.8,00.0,31.5,24.3,10.6,0000.0,0004.76,0002.84,0002.04
2022-03-13 11:05:00,,0821.8,5.00,0.00,22.5,21.8,00.0,31.5,24.3,10.5,0000.0,0004.71,0002.83,0002.04
2022-03-13 11:06:00,,0821.8,5.02,0.00,22.5,21.8,00.0,31.5,24.3,10.4,0000.0,0004.64,0002.75,0002.01
2022-03-13 11:07:00,,0821.8,4.99,0.00,22.6,21.8,00.0,31.5,24.4,10.4,0000.0,0004.50,0002.69,0001.98
2022-03-13 11:08:00,,0821.8,4.99,0.00,22.6,21.8,00.0,31.5,24.3,10.4,0000.0,0004.35,0002.63,0001.96
2022-03-13 11:09:00,,0821.8,4.99,0.00,22.5,21.8,00.0,31.5,24.3,10.6,0000.0,0004.21,0002.61,0001.95
2022-03-13 11:10:00,,0821.8,4.99,0.00,22.5,21.8,00.0,31.5,24.3,10.6,0000.0,0004.05,0002.56,0001.94
2022-03-13 11:11:00,,0821.8,5.01,0.00,22.5,21.8,00.0,31.5,24.3,10.5,0000.0,0003.90,0002.51,0001.93
2022-03-13 11:12:00,,0821.8,5.00,0.00,22.5,21.8,00.0,31.5,24.3,10.5,0000.0,0003.79,0002.44,0001.91
2022-03-13 11:13:00,,0821.9,4.99,0.00,22.5,21.8,00.0,31.5,24.3,10.5,0000.0,0003.77,0002.45,0001.90
2022-03-13 11:14:00,,0821.8,5.00,0.00,22.5,21.8,00.0,31.5,24.3,10.5,0000.0,0003.61,0002.38,0001.87
2022-03-13 11:15:00,,0821.8,5.00,0.00,22.5,21.8,00.0,31.5,24.3,10.5,0000.0,0003.63,0002.37,0001.84
2022-03-13 11:16:00,,0821.8,5.00,0.00,22.5,21.8,00.0,31.5,24.3,10.5,0000.0,0003.58,0002.35,0001.82
2022-03-13 11:17:00,,0821.9,5.01,0.00,22.5,21.8,00.0,31.5,24.3,10.5,0000.0,0003.46,0002.33,0001.82
2022-03-13 11:18:00,,0821.8,5.00,0.00,22.5,21.8,00.0,31.5,24.3,10.5,0000.0,0003.52,0002.36,0001.83
2022-03-13 11:19:00,,0821.9,5.00,0.00,22.5,21.8,00.0,31.5,24.3,10.5,0000.0,0003.57,0002.35,0001.82
2022-03-13 11:20:00,,0821.9,5.01,0.00,22.5,21.8,00.0,31.5,24.3,10.4,0000.0,0003.53,0002.32,0001.81
2022-03-13 11:21:00,,0821.8,4.99,0.00,22.5,21.8,00.0,31.5,24.3,10.4,0000.0,0003.86,0002.28,0001.79
2022-03-13 11:22:00,,0821.8,5.01,0.00,22.5,21.8,00.0,31.5,24.3,10.5,0000.0,0004.69,0002.28,0001.78
2022-03-13 11:23:00,,0821.8,5.01,0.00,22.5,21.8,00.0,31.5,24.3,10.5,0000.0,0005.17,0002.31,0001.78
2022-03-13 11:24:00,,0821.8,4.99,0.00,22.5,21.8,00.0,31.5,24.3,10.5,0000.0,0005.12,0002.28,0001.78
2022-03-13 11:25:00,,0821.9,5.00,0.00,22.5,21.8,00.0,31.5,24.3,10.5,0000.0,0005.15,0002.29,0001.78
2022-03-13 11:26:00,,0821.8,5.01,0.00,22.5,21.8,00.0,31.5,24.3,10.5,0000.0,0005.03,0002.24,0001.77
2022-03-13 11:27:00,,0821.7,4.99,0.00,22.5,21.7,00.0,31.5,24.3,10.5,0000.0,0004.99,0002.21,0001.76
2022-03-13 11:28:00,,0821.8,5.00,0.00,22.5,21.7,00.0,31.5,24.3,10.5,0000.0,0005.03,0002.22,0001.75
2022-03-13 11:29:00,,0821.8,5.01,0.00,22.5,21.7,00.0,31.5,24.2,10.5,0000.0,0005.37,0002.22,0001.75
2022-03-13 11:30:00,,0821.8,5.00,0.00,22.5,21.7,00.0,31.5,24.2,10.5,0000.0,0005.28,0002.22,0001.75
2022-03-13 11:31:00,,0821.7,5.00,0.00,22.4,21.7,00.0,31.5,24.2,10.5,0000.0,0005.32,0002.22,0001.74
2022-03-13 11:32:00,,0821.7,4.98,0.00,22.4,21.7,00.0,31.5,24.2,10.5,0000.0,0004.93,0002.24,0001.72
2022-03-13 11:33:00,,0821.7,5.01,0.00,22.4,21.7,00.0,31.4,24.2,10.5,0000.0,0004.21,0002.21,0001.70
2022-03-13 11:34:00,,0821.7,4.99,0.00,22.4,21.6,00.0,31.4,24.2,10.5,0000.0,0003.79,0002.19,0001.68
2022-03-13 11:35:00,,0821.7,4.99,0.00,22.4,21.6,00.0,31.4,24.2,10.6,0000.0,0003.73,0002.20,0001.66
2022-03-13 11:36:00,,0821.7,5.01,0.00,22.4,21.6,00.0,31.4,24.2,10.6,0000.0,0003.75,0002.17,0001.65
2022-03-13 11:37:00,,0821.7,4.99,0.00,22.4,21.6,00.0,31.4,24.1,10.6,0000.0,0004.37,0002.19,0001.64
2022-03-13 11:38:00,,0821.8,5.00,0.00,22.4,21.6,00.0,31.4,24.1,10.6,0000.0,0004.44,0002.18,0001.63
2022-03-13 11:39:00,,0821.8,5.00,0.00,22.4,21.6,00.0,31.4,24.1,10.6,0000.0,0004.46,0002.17,0001.62
2022-03-13 11:40:00,,0821.8,5.02,0.00,22.4,21.6,00.0,31.4,24.1,10.6,0000.0,0004.11,0002.16,0001.60
2022-03-13 11:41:00,,0821.8,4.99,0.00,22.4,21.6,00.0,31.4,24.1,10.6,0000.0,0004.07,0002.16,0001.58
2022-03-13 11:42:00,,0821.8,4.99,0.00,22.3,21.6,00.0,31.4,24.1,10.6,0000.0,0004.03,0002.13,0001.57
2022-03-13 11:43:00,,0821.8,5.02,0.00,22.3,21.6,00.0,31.4,24.1,10.6,0000.0,0003.93,0002.09,0001.57
2022-03-13 11:44:00,,0821.8,4.99,0.00,22.3,21.6,00.0,31.4,24.1,10.6,0000.0,0003.83,0002.06,0001.56
2022-03-13 11:45:00,,0821.8,4.99,0.00,22.3,21.5,00.0,31.4,24.0,10.6,0000.0,0003.81,0002.05,0001.55
2022-03-13 11:46:00,,0821.8,5.01,0.00,22.3,21.5,00.0,31.4,24.1,10.6,0000.0,0003.79,0002.00,0001.54
2022-03-13 11:47:00,,0821.8,5.00,0.00,22.3,21.5,00.0,31.3,24.1,10.6,0000.0,0003.70,0001.96,0001.54
2022-03-13 11:48:00,,0822.1,5.00,0.00,22.3,21.5,00.0,31.3,24.1,10.6,0000.0,0003.19,0001.95,0001.53
2022-03-13 11:49:00,,0821.8,5.02,0.00,22.3,21.5,00.0,31.3,24.1,10.6,0000.0,0003.35,0001.99,0001.53
2022-03-13 11:50:00,,0821.9,4.99,0.00,22.3,21.5,00.0,31.3,24.1,10.6,0000.0,0003.57,0002.00,0001.54
2022-03-13 11:51:00,,0821.8,5.00,0.00,22.4,21.8,00.0,31.4,24.2,10.5,0000.0,0003.72,0001.94,0001.52
2022-03-13 11:52:00,,0821.9,5.00,0.00,22.5,22.5,00.0,31.4,24.4,10.5,0000.0,0003.64,0001.91,0001.53
2022-03-13 11:53:00,,0822.0,5.01,0.00,22.6,23.0,00.0,31.4,24.6,10.4,0000.0,0003.72,0001.92,0001.53
2022-03-13 11:54:00,,0821.9,5.00,0.00,22.7,22.9,00.0,31.4,24.6,10.3,0000.0,0003.88,0001.96,0001.53
2022-03-13 11:55:00,,0821.9,4.99,0.00,22.7,22.7,00.0,31.5,24.6,10.4,0000.0,0004.00,0002.00,0001.53
2022-03-13 11:56:00,,0821.9,5.00,0.00,22.7,22.5,00.0,31.5,24.5,10.6,0000.0,0004.02,0002.00,0001.53
2022-03-13 11:57:00,,0821.9,5.01,0.00,22.6,22.4,00.0,31.5,24.4,10.6,0000.0,0003.92,0002.01,0001.55
2022-03-13 11:58:00,,0821.9,5.00,0.00,22.6,22.2,00.0,31.5,24.4,10.6,0000.0,0004.00,0002.05,0001.57
2022-03-13 11:59:00,,0822.1,5.01,0.00,22.6,22.1,00.0,31.5,24.3,10.6,0000.0,0004.06,0002.09,0001.57
